STARLINK-32357, 61009

Orbit data source: Space-Track

STARLINK-32357, 61009 is a payload satellite owned by SpaceX/Seattle (US) in LEO that was launched on Thu, 05 Sep 2024 UTC via an FALCON 9 launch vehicle from the Air Force Eastern Test Range (AFETR). Payload-class satellites include a variety of spacecraft equipped with specific instruments for various scientific and technological missions. These include communications satellites like Starlink; space stations such as the ISS; scientific satellites like the Hubble; Earth observation satellites from companies like Planet Labs, Umbra, and HawkEye 360; GPS; miniature CubeSats for education and research; and military/defense satellites.

Not visible in the next 10 days
Identifier
61009, 2024-158V
Orbit
LEO
Country
Flag of USUS
Related business
Manufacturer
SpaceX/Seattle
Mission
Partially operational Commercial Communications
Bus & Motor
STARLINK V2M, Unknown motor
Mass
730 kg wet, ~700 kg dry
Launch date (UTC)
2024-09-05 (1 year ago)
Launch vehicle
FALCON 9
Launch site
Air Force Eastern Test Range (AFETR)
Object type
Payload
Rocket body
Debris
Shape & HBR
Box + 2 Pan, 17.7 m
Radar Cross Section
33.884 m², Large (>1 m²)

Expand to show TLE details & history
Last TLE update: 4 weeks ago

TLE from 4 weeks ago
0 STARLINK-32357
1 61009U 24158V   25323.01583787  .02322135  11777-4  12263-2 0  9991
2 61009  53.1233 157.7836 0009413 244.6894 115.3170 16.19280214 69496
Epoch: 2025-11-19T00:22Z
TLE epoch observation values (Epoch: 2025-11-19T00:22:48.391Z)
Latitude
-0.00005°
Longitude
93.7883°
Altitude
225.098 km
Speed
7.771 km/s
True Right ascension
10h 31m 08s
True Declination
0° 00' 00"
Sunlit
Object was in daylight at epoch
Visualization orbit readout
Latitude
Unknown
Longitude
Unknown
Altitude
Unknown
Speed
Unknown
Apparent Right ascension
Unknown
Apparent Declination
Unknown
Sunlit
N/A
Visualization observer readout
Local Sidereal Time
17:08:45
Azimuth
Unknown
Elevation
Unknown
Doppler factor
Unknown
Orbital elements
Apogee altitude
227.992 km
Perigee altitude
215.567 km
Semi-major axis
6,599.916 km
Eccentricity
0.00094
Inclination
53.1233°
RAAN
157.7836°
Arg. of periapsis
244.6894°
True anomaly
115.41446°
Mean anomaly
115.317°
Eccentric anomaly
115.36573°
Mean motion
4.04795 °/min
Orbital period
88.93 mins
BSTAR
0.0012263
Loading maneuver chart data...
Computing Atmospheric mass density...
Loading historical data...
Loading historical data...
Loading historical data...
Loading historical data...
Loading historical data...
Loading historical data...
Loading historical data...

Documentation

Showing up to 5 results
|